Terminal Aerodrome Forecast
Issued by NWS

Home | Current Version | Previous Version | Text Only | Print | Product List | Glossary On
Versions: 1 2 3 4 5 6 7 8 9 10 11 12 13 14 15 16 17 18 19 20 21 22 23 24 25 26 27 28 29 30 31 32 33 34 35 36 37 38 39 40 41 42 43 44 45 46 47 48 49 50
000
FTUS42 KMFL 221502 AAB
TAFOPF
TAF AMD
KOPF 221502Z 2215/2312 14016KT P6SM VCTS BKN025CB BKN035 OVC050
     FM221600 16015G25KT 6SM SHRA VCTS BKN025CB OVC050
     FM222300 16012KT 6SM -SHRA SCT010 BKN030 OVC050
     FM230300 VRB05KT P6SM SCT030 BKN050 BKN100=

USA.gov is the U.S. government's official web portal to all federal, state and local government web resources and services.